Terminal Aerodrome Forecast
Issued by NWS

Home | Current Version | Previous Version | Text Only | Print | Product List | Glossary On
Versions: 1 2 3 4 5 6 7 8 9 10 11 12 13 14 15
000
FTUS45 KRIW 220500
TAFCPR
TAF
KCPR 220526Z 2206/2306 VRB06KT P6SM BKN100
     FM221100 19010KT P6SM VCSH SCT060 BKN080
     FM221800 23014G24KT P6SM VCSH SCT060 BKN080
     FM230000 27012KT P6SM VCSH BKN080
     FM230400 24008KT P6SM BKN080=

USA.gov is the U.S. government's official web portal to all federal, state and local government web resources and services.